Katta Gehege Affenhaus Messungen

Zurück zum Überblick

Zeitpunkt Temperatur Luftfeuchte
23.01.2021 18:48:38 18,8 C 42,0%
23.01.2021 18:41:37 18,9 C 42,0%
23.01.2021 18:34:36 19,0 C 42,0%
23.01.2021 18:27:35 19,1 C 42,0%
23.01.2021 18:20:33 19,2 C 42,0%
23.01.2021 18:13:33 19,4 C 41,0%
23.01.2021 18:06:30 19,6 C 41,0%
23.01.2021 17:59:27 19,6 C 41,0%
23.01.2021 17:52:24 19,6 C 41,0%
23.01.2021 17:45:22 19,5 C 41,0%
23.01.2021 17:38:19 19,4 C 42,0%
23.01.2021 17:31:18 19,4 C 41,0%
23.01.2021 17:24:17 19,6 C 41,0%
23.01.2021 17:17:14 19,8 C 41,0%
23.01.2021 17:10:13 19,8 C 41,0%
23.01.2021 17:03:13 19,7 C 41,0%
23.01.2021 16:56:11 19,6 C 42,0%
23.01.2021 16:49:11 19,6 C 42,0%
23.01.2021 16:42:07 19,7 C 42,0%
23.01.2021 16:35:05 19,9 C 41,0%
23.01.2021 16:28:03 19,9 C 41,0%
23.01.2021 16:21:01 19,8 C 42,0%
23.01.2021 16:13:58 19,7 C 41,0%
23.01.2021 16:06:56 19,6 C 42,0%
23.01.2021 15:59:54 19,8 C 41,0%
23.01.2021 15:52:52 19,9 C 41,0%
23.01.2021 15:45:51 20,0 C 41,0%
23.01.2021 15:38:50 19,9 C 41,0%
23.01.2021 15:31:48 19,7 C 41,0%
23.01.2021 15:24:48 19,7 C 42,0%
23.01.2021 15:17:46 19,9 C 41,0%
23.01.2021 15:10:45 20,1 C 41,0%
23.01.2021 15:03:41 20,1 C 41,0%
23.01.2021 14:56:38 19,9 C 41,0%
23.01.2021 14:49:36 19,8 C 42,0%
23.01.2021 14:42:34 19,7 C 42,0%
23.01.2021 14:35:34 19,8 C 42,0%
23.01.2021 14:28:33 20,0 C 42,0%
23.01.2021 14:21:32 20,1 C 42,0%
23.01.2021 14:14:29 19,9 C 42,0%
23.01.2021 14:07:25 19,7 C 42,0%
23.01.2021 14:00:22 19,5 C 43,0%
23.01.2021 13:53:21 19,3 C 43,0%
23.01.2021 13:46:20 19,4 C 43,0%
23.01.2021 13:39:17 19,6 C 42,0%
23.01.2021 13:32:14 19,7 C 42,0%
23.01.2021 13:25:14 19,6 C 42,0%
23.01.2021 13:18:11 19,5 C 42,0%
23.01.2021 13:11:08 19,4 C 42,0%
23.01.2021 13:04:07 19,3 C 42,0%
23.01.2021 12:57:04 19,2 C 43,0%
23.01.2021 12:50:02 19,1 C 43,0%
23.01.2021 12:42:59 19,0 C 43,0%
23.01.2021 12:35:56 18,9 C 43,0%
23.01.2021 12:28:52 18,8 C 43,0%
23.01.2021 12:21:50 18,8 C 43,0%
23.01.2021 12:14:49 19,0 C 42,0%
23.01.2021 12:07:46 19,1 C 42,0%
23.01.2021 12:00:45 19,1 C 42,0%
23.01.2021 11:53:43 19,0 C 42,0%
23.01.2021 11:46:41 19,0 C 42,0%
23.01.2021 11:39:40 18,9 C 42,0%
23.01.2021 11:32:39 18,9 C 42,0%
23.01.2021 11:25:37 18,7 C 42,0%
23.01.2021 11:18:37 18,6 C 42,0%
23.01.2021 11:11:34 18,5 C 42,0%
23.01.2021 11:04:32 18,3 C 42,0%
23.01.2021 10:57:31 18,2 C 43,0%
23.01.2021 10:50:30 18,3 C 42,0%
23.01.2021 10:43:29 18,5 C 42,0%
23.01.2021 10:36:25 18,5 C 42,0%
23.01.2021 10:29:24 18,4 C 42,0%
23.01.2021 10:22:22 18,3 C 42,0%
23.01.2021 10:15:19 18,3 C 42,0%
23.01.2021 10:08:16 18,5 C 42,0%
23.01.2021 10:01:13 18,7 C 42,0%
23.01.2021 09:54:11 18,6 C 42,0%
23.01.2021 09:47:09 18,5 C 42,0%
23.01.2021 09:40:06 18,7 C 42,0%
23.01.2021 09:33:05 19,0 C 42,0%
23.01.2021 09:26:02 19,0 C 42,0%
23.01.2021 09:19:00 19,0 C 42,0%
23.01.2021 09:11:57 18,9 C 42,0%
23.01.2021 09:04:55 18,8 C 42,0%
23.01.2021 08:57:54 18,6 C 42,0%
23.01.2021 08:50:52 18,5 C 42,0%
23.01.2021 08:43:50 18,6 C 42,0%
23.01.2021 08:36:48 18,7 C 42,0%
23.01.2021 08:29:47 19,0 C 42,0%
23.01.2021 08:22:45 18,9 C 42,0%
23.01.2021 08:15:44 18,8 C 42,0%
23.01.2021 08:08:41 18,7 C 42,0%
23.01.2021 08:01:39 18,7 C 42,0%
23.01.2021 07:54:36 18,9 C 42,0%
23.01.2021 07:47:33 19,1 C 41,0%
23.01.2021 07:40:31 19,2 C 41,0%
23.01.2021 07:33:29 19,1 C 41,0%
23.01.2021 07:26:28 19,1 C 41,0%
23.01.2021 07:19:26 19,0 C 42,0%
23.01.2021 07:12:24 19,0 C 42,0%
23.01.2021 07:05:22 18,9 C 42,0%
23.01.2021 06:58:20 18,8 C 42,0%
23.01.2021 06:51:19 18,7 C 42,0%
23.01.2021 06:44:18 18,7 C 42,0%
23.01.2021 06:37:15 19,0 C 42,0%
23.01.2021 06:30:14 19,2 C 42,0%
23.01.2021 06:23:12 19,2 C 42,0%
23.01.2021 06:16:10 19,2 C 42,0%
23.01.2021 06:09:07 19,1 C 42,0%
23.01.2021 06:02:07 19,1 C 42,0%
23.01.2021 05:55:06 19,0 C 42,0%
23.01.2021 05:48:03 18,9 C 42,0%
23.01.2021 05:41:01 18,9 C 42,0%
23.01.2021 05:34:01 18,8 C 42,0%
23.01.2021 05:26:59 18,7 C 42,0%
23.01.2021 05:19:59 18,5 C 42,0%
23.01.2021 05:12:55 18,4 C 42,0%
23.01.2021 05:05:53 18,5 C 42,0%
23.01.2021 04:58:51 18,8 C 42,0%
23.01.2021 04:51:50 18,9 C 42,0%
23.01.2021 04:44:47 18,9 C 42,0%
23.01.2021 04:37:45 18,8 C 42,0%
23.01.2021 04:30:42 18,7 C 42,0%
23.01.2021 04:23:41 18,6 C 42,0%
23.01.2021 04:16:39 18,4 C 42,0%
23.01.2021 04:09:38 18,3 C 43,0%
23.01.2021 04:02:38 18,2 C 43,0%
23.01.2021 03:55:34 18,3 C 43,0%
23.01.2021 03:48:31 18,5 C 43,0%
23.01.2021 03:41:29 18,7 C 42,0%
23.01.2021 03:34:26 18,5 C 43,0%
23.01.2021 03:27:24 18,4 C 43,0%
23.01.2021 03:20:21 18,3 C 43,0%
23.01.2021 03:13:18 18,5 C 43,0%
23.01.2021 03:06:17 18,8 C 42,0%
23.01.2021 02:59:16 18,7 C 43,0%
23.01.2021 02:52:13 18,6 C 43,0%
23.01.2021 02:45:11 18,4 C 43,0%
23.01.2021 02:38:11 18,5 C 43,0%
23.01.2021 02:31:07 18,8 C 43,0%
23.01.2021 02:24:05 18,9 C 43,0%
23.01.2021 02:17:03 18,8 C 43,0%
23.01.2021 02:10:02 18,7 C 43,0%
23.01.2021 02:03:00 18,6 C 43,0%
23.01.2021 01:55:57 18,8 C 43,0%
23.01.2021 01:48:56 19,0 C 43,0%
23.01.2021 01:41:54 19,2 C 43,0%
23.01.2021 01:34:50 19,1 C 43,0%
23.01.2021 01:27:48 19,0 C 43,0%
23.01.2021 01:20:47 19,0 C 43,0%
23.01.2021 01:13:47 18,9 C 43,0%
23.01.2021 01:06:45 18,8 C 43,0%
23.01.2021 00:59:44 18,7 C 43,0%
23.01.2021 00:52:42 18,6 C 43,0%
23.01.2021 00:45:39 18,6 C 43,0%
23.01.2021 00:38:37 18,8 C 43,0%
23.01.2021 00:31:36 19,0 C 43,0%
23.01.2021 00:24:34 19,0 C 43,0%
23.01.2021 00:17:31 18,9 C 43,0%
23.01.2021 00:10:29 18,8 C 43,0%
23.01.2021 00:03:26 18,7 C 43,0%